STARLINK-32678, 62309

Orbit data source: Space-Track

STARLINK-32678, 62309 is a payload satellite owned by SpaceX/Seattle (US) in LEO that was launched on Fri, 13 Dec 2024 UTC via an FALCON 9 launch vehicle from the Air Force Western Test Range (AFWTR). Payload-class satellites include a variety of spacecraft equipped with specific instruments for various scientific and technological missions. These include communications satellites like Starlink; space stations such as the ISS; scientific satellites like the Hubble; Earth observation satellites from companies like Planet Labs, Umbra, and HawkEye 360; GPS; miniature CubeSats for education and research; and military/defense satellites.

Loading next visibility...
Identifier
62309, 2024-239J
Orbit
LEO
Country
Flag of USUS
Related business
Manufacturer
SpaceX/Seattle
Mission
Operational Commercial Communications
Bus & Motor
STARLINK V2M, Unknown motor
Mass
730 kg wet, ~700 kg dry
Launch date (UTC)
2024-12-13 (2 years ago)
Launch vehicle
FALCON 9
Launch site
Air Force Western Test Range (AFWTR)
Object type
Payload
Rocket body
Debris
Shape & HBR
Box + 2 Pan, 17.7 m
Radar Cross Section
33.884 m², Large (>1 m²)

Expand to show TLE details & history
Last TLE update: 16 hours ago

TLE from 16 hours ago
0 STARLINK-32678
1 62309U 24239J   26171.19372606  .00054903  00000-0  16211-2 0  9995
2 62309  53.1570  64.5978 0001907 165.1436 194.9623 15.34459614 85262
Epoch: 2026-06-20T04:38Z
TLE epoch observation values (Epoch: 2026-06-20T04:38:57.931Z)
Latitude
-0.00002°
Longitude
86.44455°
Altitude
464.687 km
Speed
7.635 km/s
True Right ascension
04h 18m 23s
True Declination
0° 00' 00"
Sunlit
Object was in daylight at epoch
Visualization orbit readout
Latitude
Unknown
Longitude
Unknown
Altitude
Unknown
Speed
Unknown
Apparent Right ascension
Unknown
Apparent Declination
Unknown
Sunlit
N/A
Visualization observer readout
Local Sidereal Time
07:23:47
Azimuth
Unknown
Elevation
Unknown
Doppler factor
Unknown
Orbital elements
Apogee altitude
464.088 km
Perigee altitude
461.479 km
Semi-major axis
6,840.92 km
Eccentricity
0.00019
Inclination
53.157°
RAAN
64.5978°
Arg. of periapsis
165.1436°
True anomaly
194.95666°
Mean anomaly
194.9623°
Eccentric anomaly
194.95948°
Mean motion
3.83594 °/min
Orbital period
93.85 mins
BSTAR
0.0016211
Loading maneuver chart data...
Computing Atmospheric mass density...
Loading historical data...
Loading historical data...
Loading historical data...
Loading historical data...
Loading historical data...
Loading historical data...
Loading historical data...

Documentation

Showing up to 5 results
|